DECAYED

OBJECT AF, 57033 (Decayed)

Orbit data source: Space-Track

You're viewing an Uncataloged Satellite

Recently launched and/or uncataloged satellites may have evolving metadata. Metadata may include but not limited to: Owner, Maufacturer, Bus, Motor, and Mission.

OBJECT AF, 57033 was a Chinese satellite in LEO that was launched on Thu, 15 Jun 2023 UTC via a CHANG ZHENG 2D launch vehicle from the Taiyaun Space Center, China (TSC). Unknown objects in Earth's orbit typically refer to objects detected orbiting the Earth but have not yet been identified or cataloged. These objects could be anything from previously untracked satellites, spent rocket stages, debris from satellite collisions, or even natural meteoroids temporarily captured by Earth's gravity. This object's orbit decayed before it could be identified.

Not visible in the next 10 days
Identifier
57033, 2023-085AF
Orbit
Decayed
Country
Flag of CNCN / PRC
Related business
None
Manufacturer
Unknown
Mission
Decayed Commercial Imaging
Bus & Motor
Unknown
Mass
Unknown
Launch date (UTC)
2023-06-15 (3 years ago)
Launch vehicle
CHANG ZHENG 2D
Launch site
Taiyaun Space Center, China (TSC)
Object type
Unknown
Shape & HBR
Box, 0.8 m
Radar Cross Section
2.000 m², Medium (>0.1 m² and < 1m²)

Expand to show TLE details & history
Last TLE update: 3 months ago

TLE from 3 months ago
0 OBJECT AF
1 57033U 23085AF  26088.34512417  .06110676  25534-5  10227-2 0  9992
2 57033  97.4674 221.3670 0015994 286.1185  73.8349 16.32894426155939
Epoch: 2026-03-29T08:16Z
TLE epoch observation values (Epoch: 2026-03-29T08:16:58.728Z)
Latitude
-0.00006°
Longitude
-89.63004°
Altitude
185.105 km
Speed
7.797 km/s
True Right ascension
14h 45m 28s
True Declination
0° 00' 00"
Sunlit
Object was in full shadow at epoch
Visualization orbit readout
Latitude
Unknown
Longitude
Unknown
Altitude
Unknown
Speed
Unknown
Apparent Right ascension
Unknown
Apparent Declination
Unknown
Sunlit
N/A
Visualization observer readout
Local Sidereal Time
00:33:48
Azimuth
Unknown
Elevation
Unknown
Doppler factor
Unknown
Orbital elements
Apogee altitude
192.084 km
Perigee altitude
171.101 km
Semi-major axis
6,559.73 km
Eccentricity
0.0016
Inclination
97.4674°
RAAN
221.367°
Arg. of periapsis
286.1185°
True anomaly
74.01103°
Mean anomaly
73.8349°
Eccentric anomaly
73.92295°
Mean motion
4.08521 °/min
Orbital period
88.12 mins
BSTAR
0.0010227
Loading maneuver chart data...
Computing Atmospheric mass density...
Loading historical data...
Loading historical data...
Loading historical data...
Loading historical data...
Loading historical data...
Loading historical data...
Loading historical data...

Documentation

Showing up to 5 results
|